CW2613 Palm City FL US current weather conditions

sailwx.info

Wind from 111

Air temperature 32.2° C
Dewpoint 23.4° C

Last reported at 2019-Jul-16 22:01 UTC.
Time now 2019-Jul-16 22:41 UTC

Location: N 27°08' W 080°20'.
View on Google Maps.

See reports from other nearby stations

  
Tides and Currents Weather Stations Pressure Air Temp Water Temp Dewpoint Dewpoint Depression Visibility Wind Speed Wind Dir Waves Ship Positions
date/time (UTC)wind fromknots sea level pressurealtimeterstation pressurevisibilityair tempwater tempwave heightnotes
2019-Jul-16 22:01 111 32.2
2019-Jul-16 21:46 123 0 gusting 6 32.8
2019-Jul-16 21:45 140 0 gusting 6 32.8
2019-Jul-16 21:31 168 1 gusting 6 33.3
2019-Jul-16 21:16 193 33.3
2019-Jul-16 21:02 082 0 gusting 6 33.3
2019-Jul-16 20:46 063 0 gusting 6 33.3
2019-Jul-16 20:30 068 0 gusting 9 33.3
2019-Jul-16 20:16 130 3 gusting 11 33.3
2019-Jul-16 20:01 058 1 gusting 6 33.3
2019-Jul-16 19:45 131 1 gusting 6 33.3
2019-Jul-16 19:31 045 1 gusting 6 33.3
2019-Jul-16 19:16 145 1 gusting 6 33.3
2019-Jul-16 19:01 185 1 gusting 7 33.9
2019-Jul-16 18:45 067 0 gusting 6 33.9
2019-Jul-16 18:31 057 2 gusting 6 33.9
2019-Jul-16 18:16 075 0 gusting 5 33.9
2019-Jul-16 18:01 346 33.9
2019-Jul-16 17:46 103 0 gusting 6 34.4
2019-Jul-16 17:31 014 0 gusting 6 33.9
2019-Jul-16 17:15 121 2 gusting 7 33.3
2019-Jul-16 17:00 094 0 gusting 4 32.8
2019-Jul-16 16:45 278 32.2
2019-Jul-16 16:30 078 32.2
2019-Jul-16 16:16 124 31.7
2019-Jul-16 16:00 148 31.7
2019-Jul-16 15:45 117 0 gusting 3 32.8
2019-Jul-16 15:30 091 31.7
2019-Jul-16 15:15 172 31.7
2019-Jul-16 15:01 293 0 gusting 6 32.2
2019-Jul-16 14:45 212 31.7
2019-Jul-16 14:30 118 0 gusting 3 32.2
2019-Jul-16 14:15 169 1 gusting 4 31.7
2019-Jul-16 14:01 220 31.1
2019-Jul-16 13:47 152 30.6
2019-Jul-16 13:33 204 30.6
2019-Jul-16 13:16 123 30.0
2019-Jul-16 13:02 113 0 gusting 3 30.0
2019-Jul-16 12:46 155 30.0
2019-Jul-16 12:31 131 29.4
2019-Jul-16 12:16 079 28.3
2019-Jul-16 12:01 079 27.2
2019-Jul-16 11:45 079 26.1
2019-Jul-16 11:30
2019-Jul-16 11:15
2019-Jul-16 11:01
2019-Jul-16 10:46
2019-Jul-16 10:31
2019-Jul-16 10:15
2019-Jul-16 10:00 082 23.3
2019-Jul-16 09:45 079 23.9
2019-Jul-16 09:30 079 23.9
2019-Jul-16 09:15 079 23.9
2019-Jul-16 09:00 079 23.9
2019-Jul-16 08:45 079 23.9
2019-Jul-16 08:30 079 23.9
2019-Jul-16 08:01 079 24.4
2019-Jul-16 08:00 079 24.4
2019-Jul-16 07:46 079 24.4
2019-Jul-16 07:31 079 24.4
2019-Jul-16 07:16 079 24.4
2019-Jul-16 07:02 079 24.4
2019-Jul-16 06:46 079 24.4
2019-Jul-16 06:31 079 24.4
2019-Jul-16 06:16 079 24.4
2019-Jul-16 06:01 079 24.4
2019-Jul-16 05:46 079 24.4
2019-Jul-16 05:31 079 24.4
2019-Jul-16 05:16 079 24.4
2019-Jul-16 05:01 079 25.0
2019-Jul-16 04:46 079 25.0
2019-Jul-16 04:31 079 25.0
2019-Jul-16 04:15 079 25.0
2019-Jul-16 04:01 079 25.0
2019-Jul-16 03:46 079 25.0
2019-Jul-16 03:32 079 25.0
2019-Jul-16 03:15 079 25.0
2019-Jul-16 03:01 079 25.0
2019-Jul-16 02:45 079 25.6
2019-Jul-16 02:31 079 25.6
2019-Jul-16 02:16 079 25.6
2019-Jul-16 02:00 079 26.1
2019-Jul-16 01:45 079 26.1
2019-Jul-16 01:30 079 26.7
2019-Jul-16 01:15 079 26.7
2019-Jul-16 01:00 079 27.2
2019-Jul-16 00:45 079 27.2
2019-Jul-16 00:30 079 27.8
2019-Jul-16 00:15 078 28.3
2019-Jul-16 00:00 139 29.4
2019-Jul-15 23:45 190 30.0
2019-Jul-15 23:30 102 31.1
2019-Jul-15 23:15 060 1 gusting 6 31.1
2019-Jul-15 23:01 073 0 gusting 3 31.1
2019-Jul-15 22:45 065 0 gusting 5 31.7
2019-Jul-15 22:30 067 0 gusting 7 31.7
2019-Jul-15 22:15 082 0 gusting 6 32.2
2019-Jul-15 22:00 146 1 gusting 8 32.2
2019-Jul-15 21:45 101 1 gusting 6 32.8
2019-Jul-15 21:30 073 0 gusting 5 33.3
2019-Jul-15 21:15 184 1 gusting 6 33.3
2019-Jul-15 21:00 096 0 gusting 6 32.8
2019-Jul-15 20:45 061 0 gusting 7 33.3
2019-Jul-15 20:30 074 1 gusting 4 33.3
2019-Jul-15 20:15 103 0 gusting 6 33.3
2019-Jul-15 20:00 064 33.9
2019-Jul-15 19:45 195 1 gusting 6 33.3
2019-Jul-15 19:30 075 0 gusting 5 33.9
2019-Jul-15 19:15 150 1 gusting 8 33.3
2019-Jul-15 19:01 116 2 gusting 6 33.3
2019-Jul-15 18:45 100 32.8
2019-Jul-15 18:30 285 0 gusting 5 33.3
2019-Jul-15 18:15 045 1 gusting 7 32.8
2019-Jul-15 18:00 252 0 gusting 8 33.9
2019-Jul-15 17:46 130 0 gusting 6 33.3
2019-Jul-15 17:45 123 1 gusting 6 33.3
2019-Jul-15 17:32 146 2 gusting 6 33.3
2019-Jul-15 17:16 158 1 gusting 7 33.3
2019-Jul-15 17:01 247 0 gusting 6 33.3
2019-Jul-15 16:47 137 1 gusting 7 32.2
2019-Jul-15 16:31 224 2 gusting 5 32.8
2019-Jul-15 16:16 160 0 gusting 7 32.8
2019-Jul-15 16:01 095 0 gusting 6 32.2
2019-Jul-15 15:47 189 1 gusting 4 32.2
2019-Jul-15 15:31 304 32.8
2019-Jul-15 15:16 203 31.7
2019-Jul-15 15:01 271 0 gusting 2 31.7
2019-Jul-15 14:47 133 31.7
2019-Jul-15 14:31 188 31.7
2019-Jul-15 14:16 084 0 gusting 5 31.1
2019-Jul-15 14:01 059 0 gusting 6 31.7
2019-Jul-15 13:45 125 0 gusting 7 31.1
2019-Jul-15 13:31 205 1 gusting 6 30.6
2019-Jul-15 13:15 148 0 gusting 2 30.6
2019-Jul-15 13:01 164 0 gusting 4 30.0
2019-Jul-15 12:45 100 30.0
2019-Jul-15 12:30 077 28.9
2019-Jul-15 12:15 046 27.8
2019-Jul-15 12:00 290 26.7
2019-Jul-15 11:45 290 25.6
2019-Jul-15 11:30 290 25.0
2019-Jul-15 11:17
2019-Jul-15 11:01
2019-Jul-15 10:46
2019-Jul-15 10:31
2019-Jul-15 10:17 070 23.3
2019-Jul-15 10:01 065 23.9
2019-Jul-15 09:46 064 23.9
2019-Jul-15 09:30 065 23.9
2019-Jul-15 09:16 065 23.9
2019-Jul-15 09:01 065 23.9
2019-Jul-15 08:46 065 23.9
2019-Jul-15 08:30 065 23.9
2019-Jul-15 08:16 065 23.9
2019-Jul-15 08:01 065 23.9
2019-Jul-15 07:45 065 23.9
2019-Jul-15 07:31 065 24.4
2019-Jul-15 07:16 065 24.4
2019-Jul-15 07:00 065 24.4
2019-Jul-15 06:46 065 24.4
2019-Jul-15 06:30 065 24.4
2019-Jul-15 06:15 065 24.4
2019-Jul-15 06:00 065 24.4
2019-Jul-15 05:45 065 24.4
2019-Jul-15 05:30 064 24.4
2019-Jul-15 05:15 065 24.4
2019-Jul-15 05:00 065 24.4
2019-Jul-15 04:45 065 24.4
2019-Jul-15 04:30 065 25.0
2019-Jul-15 04:15 064 25.0
2019-Jul-15 04:00 065 25.0
2019-Jul-15 03:46 065 25.0
2019-Jul-15 03:45 065 25.0
2019-Jul-15 03:31 065 25.0
2019-Jul-15 03:17 065 25.0
2019-Jul-15 03:02 065 25.6
2019-Jul-15 02:46 065 25.6
2019-Jul-15 02:31 065 25.6
2019-Jul-15 02:16 065 25.6
2019-Jul-15 02:01 065 26.1
2019-Jul-15 01:47 065 26.1
2019-Jul-15 01:33 064 26.7
2019-Jul-15 01:16 064 27.2
2019-Jul-15 01:02 065 27.2
2019-Jul-15 00:46 049 27.8
2019-Jul-15 00:31 049 28.3
2019-Jul-15 00:16 346 28.9
2019-Jul-15 00:01 061 29.4
2019-Jul-14 23:46 065 30.0
2019-Jul-14 23:31 087 30.0
2019-Jul-14 23:16 070 1 gusting 6 30.6
2019-Jul-14 23:01 294 30.6
2019-Jul-14 22:46 066 0 gusting 5 31.7
2019-Jul-14 22:31 051 0 gusting 6 31.7
2019-Jul-14 22:16 099 0 gusting 5 32.2
2019-Jul-14 22:01 143 2 gusting 5 32.2